{"data":{"norad_id":66216,"epoch":"2026-05-24T22:53:08.086848Z","epoch_age_seconds":83063,"freshness":"FRESH","line1":"1 66216U 25244L   26144.95356582  .00016133  00000+0  55562-3 0  9997","line2":"2 66216  53.1582 235.8326 0000965  77.2257 282.8851 15.30200742 33336","mean_motion":15.30200742,"eccentricity":9.65e-5,"inclination_deg":53.1582,"raan_deg":235.8326,"arg_perigee_deg":77.2257,"mean_anomaly_deg":282.8851,"bstar":0.00055562,"rev_number":3333,"period_min":94.105300074413,"perigee_km":474.55150568106,"apogee_km":475.87420220287,"semimajor_km":6853.349853942,"source":"CELESTRAK","updated_at":"2026-05-25T13:38:21.128670Z"}}